STARLINK-37025

Last updated on Sun Apr 12 2026 00:02:07 GMT+0000 (Coordinated Universal Time)

1 68223U 26053S 26101.50002315 -.01828152 00000+0 -23995-1 0 9990 2 68223 97.2849 337.4398 0001859 69.8108 67.2567 15.61565882 5290

Satellite not in orbit

STARLINK-37025